GW4872 Weather Reports


time (UTC)temp
C
wind
direction
speed
KPH
gust
KPH
rain 1hr
cm
rain 24hr
cm
rain mn
cm
humidity
%
barometer
mb
20260505140304 9 177 3.2 6.4 0.00 0.05 0.05 63 1013.3
20260505130228 9 88 4.8 6.4 0.00 0.05 0.05 63 1012.6
20260505124718 9 161 1.6 3.2 0.00 0.05 0.05 66 1012.2
20260505124215 9 171 1.6 6.4 0.00 0.05 0.05 67 1012.1
20260505123711 8 159 0.0 4.8 0.00 0.05 0.05 69 1012.0
20260505123208 8 171 0.0 1.6 0.00 0.05 0.05 71 1012.0
20260505122704 8 178 0.0 0.0 0.00 0.05 0.05 72 1011.8
20260505122201 8 171 0.0 0.0 0.00 0.05 0.05 74 1011.8
20260505121658 8 185 0.0 0.0 0.00 0.05 0.05 76 1011.7
20260505121154 8 178 0.0 0.0 0.00 0.05 0.05 78 1011.6
20260505120651 8 169 0.0 0.0 0.00 0.05 0.05 79 1011.6
20260505120148 8 166 0.0 0.0 0.00 0.05 0.05 79 1011.5
20260505115646 8 168 0.0 0.0 0.00 0.05 0.05 79 1011.1
20260505115145 8 164 0.0 0.0 0.00 0.05 0.05 80 1010.9
20260505114642 8 164 0.0 0.0 0.00 0.05 0.05 80 1011.0
20260505114138 8 126 3.2 3.2 0.00 0.05 0.05 80 1010.9
20260505113634 8 168 1.6 3.2 0.00 0.05 0.05 81 1010.9
20260505113131 8 112 1.6 3.2 0.00 0.05 0.05 83 1011.0
20260505112627 8 160 0.0 1.6 0.00 0.05 0.05 84 1010.9
20260505112126 8 121 3.2 3.2 0.00 0.05 0.05 85 1011.1
20260505111625 8 168 0.0 0.0 0.00 0.05 0.05 85 1011.2
20260505111121 8 167 0.0 0.0 0.00 0.05 0.05 85 1011.2
20260505110618 8 165 0.0 0.0 0.00 0.05 0.05 85 1011.2
20260505110115 7 165 0.0 0.0 0.00 0.05 0.05 86 1011.1
20260505102050 8 168 0.0 0.0 0.00 0.05 0.05 84 1011.4
20260505101549 8 166 0.0 0.0 0.00 0.05 0.05 84 1011.4
20260505101045 8 167 0.0 0.0 0.00 0.05 0.05 82 1011.4
20260505100542 8 165 0.0 0.0 0.00 0.05 0.05 82 1011.4
20260505100039 8 167 0.0 0.0 0.00 0.05 0.05 84 1011.3
20260505095535 8 167 0.0 0.0 0.00 0.05 0.05 84 1011.3
20260505095031 8 167 0.0 0.0 0.00 0.05 0.05 85 1011.2
20260505094528 8 165 0.0 0.0 0.00 0.05 0.05 85 1011.3
20260505094024 8 169 0.0 0.0 0.00 0.05 0.05 86 1011.1
20260505093521 8 170 0.0 0.0 0.00 0.05 0.05 86 1011.0
20260505093018 8 168 0.0 0.0 0.00 0.05 0.05 86 1010.9
20260505092515 8 167 0.0 3.2 0.00 0.05 0.05 86 1010.9
20260505092014 8 149 1.6 4.8 0.00 0.05 0.05 85 1010.5
20260505091510 8 134 3.2 3.2 0.00 0.05 0.05 86 1010.5
20260505091008 8 156 3.2 4.8 0.00 0.05 0.05 86 1010.4
20260505090506 8 165 0.0 0.0 0.00 0.05 0.05 85 1010.4
20260505090003 8 165 0.0 0.0 0.00 0.05 0.05 84 1010.4
20260505085501 8 168 0.0 0.0 0.00 0.05 0.05 83 1010.3
20260505084959 8 169 0.0 0.0 0.00 0.05 0.05 82 1010.2
20260505084457 8 168 0.0 0.0 0.00 0.05 0.05 84 1010.4
20260505083955 8 167 0.0 1.6 0.00 0.05 0.05 84 1010.3
20260505083452 8 168 0.0 0.0 0.00 0.05 0.05 85 1010.3
20260505082948 8 171 0.0 0.0 0.00 0.05 0.05 85 1010.3
20260505082444 8 177 0.0 0.0 0.00 0.05 0.05 85 1010.0
20260505081941 8 160 0.0 0.0 0.00 0.05 0.05 86 1010.1
20260505081438 8 168 0.0 0.0 0.00 0.05 0.05 86 1010.0
20260505080934 8 168 0.0 0.0 0.00 0.05 0.05 85 1009.5
20260505080430 8 165 0.0 0.0 0.00 0.05 0.05 85 1009.8
20260505075926 8 167 0.0 1.6 0.00 0.05 0.05 85 1009.2
20260505075423 9 167 0.0 0.0 0.00 0.05 0.05 85 1009.4
20260505074921 8 165 0.0 3.2 0.00 0.05 0.05 85 1009.5
20260505074418 8 170 1.6 4.8 0.00 0.05 0.05 86 1009.6
20260505073914 8 163 0.0 0.0 0.00 0.05 0.05 87 1009.7
20260505073413 8 176 1.6 1.6 0.00 0.05 0.05 87 1009.7
20260505072909 8 166 0.0 1.6 0.00 0.05 0.05 88 1009.7
20260505072405 8 172 1.6 1.6 0.00 0.05 0.05 87 1009.8
20260505071902 8 165 0.0 0.0 0.00 0.05 0.05 87 1009.4
20260505071358 8 165 0.0 0.0 0.00 0.05 0.05 86 1009.6
20260505070856 8 167 0.0 0.0 0.00 0.05 0.05 86 1009.5
20260505070352 8 172 1.6 4.8 0.00 0.05 0.05 85 1009.6
20260505065848 8 178 3.2 4.8 0.00 0.05 0.05 84 1009.5
20260505065345 8 175 0.0 1.6 0.00 0.05 0.05 83 1008.9
20260505064842 8 165 0.0 1.6 0.00 0.05 0.05 85 1009.1
20260505064339 8 162 0.0 0.0 0.00 0.05 0.05 84 1009.3
20260505063837 8 177 1.6 3.2 0.00 0.05 0.05 83 1009.7
20260505063333 8 177 0.0 1.6 0.00 0.05 0.05 79 1009.3
20260505062830 8 160 0.0 1.6 0.18 0.05 0.05 77 1009.3
20260505062327 9 153 1.6 1.6 0.18 0.05 0.05 75 1009.5
20260505061823 9 172 0.0 1.6 0.00 0.03 0.03 74 1010.2
20260505061322 9 208 3.2 4.8 0.00 0.03 0.03 74 1010.2
20260505060819 9 141 3.2 3.2 0.00 0.03 0.03 74 1010.0
20260505060316 9 182 0.0 4.8 0.00 0.03 0.03 74 1009.4
20260505055811 9 137 4.8 6.4 0.00 0.03 0.03 74 1009.4
20260505055307 9 167 0.0 4.8 0.00 0.03 0.03 74 1009.6
20260505054805 9 270 8.0 9.7 0.00 0.03 0.03 74 1009.8
20260505054302 10 132 4.8 6.4 0.00 0.03 0.03 73 1009.5
20260505053801 10 198 4.8 6.4 0.00 0.03 0.03 72 1010.0
20260505053257 10 161 6.4 9.7 0.00 0.03 0.03 71 1009.6
20260505052754 10 288 4.8 11.3 0.00 0.03 0.03 70 1009.4
20260505052251 10 73 6.4 6.4 0.00 0.03 0.03 71 1009.4
20260505051748 10 131 4.8 11.3 0.00 0.03 0.03 70 1009.4
20260505051246 10 0 8.0 11.3 0.00 0.03 0.03 70 1009.4
20260505050743 10 114 6.4 11.3 0.13 0.03 0.03 71 1009.4
20260505050242 10 34 6.4 12.9 0.13 0.03 0.03 69 1010.0
20260505041712 12 145 8.0 12.9 0.00 0.00 0.00 50 1010.2
20260505041209 12 4 6.4 14.5 0.00 0.00 0.00 50 1009.7
20260505040706 12 2 11.3 20.9 0.00 0.00 0.00 47 1010.0
20260505040203 12 6 12.9 20.9 0.00 0.00 0.00 46 1009.9
20260505035700 12 146 4.8 16.1 0.00 0.00 0.00 46 1009.4
20260505035156 12 106 11.3 17.7 0.00 0.00 0.00 46 1009.4
20260505034652 12 115 9.7 14.5 0.00 0.00 0.00 45 1009.1
20260505034150 12 30 9.7 17.7 0.00 0.00 0.00 46 1009.1
20260505033646 13 9 12.9 24.1 0.00 0.00 0.00 46 1009.0
20260505033144 13 18 8.0 22.5 0.00 0.00 0.00 46 1009.1
20260505032642 13 2 20.9 24.1 0.00 0.00 0.00 46 1008.9
20260505032138 13 50 19.3 22.5 0.00 0.00 0.00 46 1008.9
20260505031636 13 34 9.7 17.7 0.00 0.00 0.00 46 1009.0
20260505031131 13 358 17.7 20.9 0.00 0.00 0.00 46 1009.2
20260505030629 13 32 19.3 24.1 0.00 0.00 0.00 44 1008.9
20260505030124 13 20 16.1 20.9 0.00 0.00 0.00 44 1008.7
20260505025620 13 282 11.3 17.7 0.00 0.00 0.00 45 1008.7
20260505025120 13 337 14.5 22.5 0.00 0.00 0.00 44 1008.5
20260505024616 13 71 11.3 20.9 0.00 0.00 0.00 45 1008.6
20260505024114 13 355 17.7 35.4 0.00 0.00 0.00 45 1008.3
20260505023611 13 355 16.1 33.8 0.00 0.00 0.00 45 1008.2
20260505023109 13 330 14.5 25.7 0.00 0.00 0.00 45 1008.1
20260505022606 13 358 17.7 29.0 0.00 0.00 0.00 44 1008.2
20260505022102 13 317 12.9 20.9 0.00 0.00 0.00 44 1008.0
20260505021559 14 342 14.5 35.4 0.00 0.00 0.00 44 1007.8
20260505021056 14 60 14.5 27.4 0.00 0.00 0.00 44 1007.6
20260505020556 14 329 12.9 25.7 0.00 0.00 0.00 45 1008.0
20260505020053 14 24 16.1 25.7 0.00 0.00 0.00 45 1007.6
20260505015550 14 348 17.7 30.6 0.00 0.00 0.00 45 1007.7
20260505015047 14 338 22.5 30.6 0.00 0.00 0.00 44 1007.7
20260505014543 14 0 11.3 27.4 0.00 0.00 0.00 45 1007.3
20260505014041 15 20 17.7 33.8 0.00 0.00 0.00 45 1007.4
20260505013538 15 13 19.3 29.0 0.00 0.00 0.00 44 1007.3
20260505013035 15 16 24.1 37.0 0.00 0.00 0.00 43 1007.3
20260505012533 15 339 25.7 40.2 0.00 0.00 0.00 42 1007.0
20260505012030 16 334 16.1 24.1 0.00 0.00 0.00 41 1006.7
20260505011525 16 344 19.3 29.0 0.00 0.00 0.00 41 1006.6
20260505011023 16 336 19.3 27.4 0.00 0.00 0.00 41 1006.8
20260505010518 16 18 19.3 30.6 0.00 0.00 0.00 40 1006.5
20260505010015 16 15 17.7 37.0 0.00 0.00 0.00 39 1006.6
20260505005511 17 28 24.1 30.6 0.00 0.00 0.00 38 1006.5
20260505005009 17 359 25.7 40.2 0.00 0.00 0.00 38 1006.3
20260505004506 17 17 17.7 25.7 0.00 0.00 0.00 37 1006.3
20260505004002 18 358 22.5 30.6 0.00 0.00 0.00 37 1006.1
20260505003500 18 22 19.3 27.4 0.00 0.00 0.00 37 1006.1
20260505002956 18 20 14.5 29.0 0.00 0.00 0.00 36 1005.9
20260505002452 18 337 16.1 29.0 0.00 0.00 0.00 36 1005.7
20260505001950 18 276 22.5 29.0 0.00 0.00 0.00 35 1005.8
20260505001448 20 340 25.7 38.6 0.00 0.00 0.00 35 1005.7
20260505000945 20 8 12.9 16.1 0.00 0.00 0.00 36 1005.6
20260505000443 20 23 14.5 20.9 0.00 0.00 0.00 36 1005.5
20260504235939 20 319 14.5 22.5 0.00 0.00 0.00 36 1005.5
20260504235436 20 351 14.5 27.4 0.00 0.00 0.00 35 1005.4
20260504234932 20 10 19.3 29.0 0.00 0.00 0.00 35 1005.4
20260504234430 20 6 20.9 33.8 0.00 0.00 0.00 35 1005.3
20260504233926 20 312 17.7 24.1 0.00 0.00 0.00 35 1005.4
20260504233422 21 317 16.1 27.4 0.00 0.00 0.00 34 1005.3
20260504232919 21 350 11.3 20.9 0.00 0.00 0.00 34 1005.1
20260504232417 21 7 19.3 29.0 0.00 0.00 0.00 33 1004.9
20260504231914 21 273 16.1 27.4 0.00 0.00 0.00 33 1005.0
20260504231409 22 12 12.9 24.1 0.00 0.00 0.00 33 1004.7
20260504230906 22 0 17.7 25.7 0.00 0.00 0.00 32 1004.9
20260504230403 22 344 14.5 24.1 0.00 0.00 0.00 32 1004.8
20260504225902 22 334 17.7 25.7 0.00 0.00 0.00 32 1004.4
20260504225358 22 71 9.7 25.7 0.00 0.00 0.00 32 1004.3
20260504224856 22 346 14.5 22.5 0.00 0.00 0.00 32 1004.1
20260504224352 22 73 16.1 25.7 0.00 0.00 0.00 32 1004.0
20260504223849 22 31 17.7 27.4 0.00 0.00 0.00 32 1004.0
20260504223344 23 4 20.9 30.6 0.00 0.00 0.00 32 1003.8
20260504222841 23 18 20.9 27.4 0.00 0.00 0.00 32 1003.8
20260504222338 23 8 17.7 25.7 0.00 0.00 0.00 32 1003.6
20260504221837 23 46 16.1 25.7 0.00 0.00 0.00 31 1003.5
20260504221333 23 12 17.7 37.0 0.00 0.00 0.00 32 1003.6
20260504220830 24 324 16.1 25.7 0.00 0.00 0.00 32 1003.4
20260504220327 24 359 11.3 25.7 0.00 0.00 0.00 32 1003.0
20260504215824 24 1 14.5 22.5 0.00 0.00 0.00 32 1003.2
20260504215320 24 26 20.9 29.0 0.00 0.00 0.00 31 1003.2
20260504214816 24 50 11.3 25.7 0.00 0.00 0.00 32 1002.9
20260504214314 25 254 14.5 24.1 0.00 0.00 0.00 32 1003.1
20260504213810 25 37 9.7 24.1 0.00 0.00 0.00 32 1002.9
20260504213306 25 86 12.9 17.7 0.00 0.00 0.00 32 1003.1
20260504212804 25 26 12.9 20.9 0.00 0.00 0.00 32 1002.9
20260504212300 25 3 11.3 25.7 0.00 0.00 0.00 33 1003.0
20260504211758 25 356 12.9 22.5 0.00 0.00 0.00 33 1003.0
20260504211253 25 353 14.5 17.7 0.00 0.00 0.00 33 1003.0
20260504210751 25 56 11.3 22.5 0.00 0.00 0.00 34 1003.0
20260504210248 25 356 8.0 30.6 0.00 0.00 0.00 35 1002.7
20260504205745 25 77 16.1 22.5 0.00 0.00 0.00 34 1002.7
20260504205243 25 1 12.9 24.1 0.00 0.00 0.00 35 1002.7
20260504204741 25 319 11.3 16.1 0.00 0.00 0.00 35 1002.7
20260504204239 25 89 9.7 20.9 0.00 0.00 0.00 35 1002.7
20260504203738 25 266 9.7 17.7 0.00 0.00 0.00 36 1002.7
20260504203235 25 10 8.0 22.5 0.00 0.00 0.00 36 1002.6
20260504202735 26 48 11.3 16.1 0.00 0.00 0.00 36 1002.6
20260504202232 25 90 11.3 17.7 0.00 0.00 0.00 38 1002.5
20260504201729 26 61 14.5 25.7 0.00 0.00 0.00 36 1002.7
20260504201226 26 345 11.3 22.5 0.00 0.00 0.00 36 1002.6
20260504200724 26 3 20.9 27.4 0.00 0.00 0.00 36 1002.6
20260504200220 26 15 12.9 20.9 0.00 0.00 0.00 36 1002.6
20260504195716 26 326 11.3 27.4 0.00 0.00 0.00 35 1002.5
20260504195212 26 36 9.7 24.1 0.00 0.00 0.00 36 1002.4
20260504194710 26 120 9.7 17.7 0.00 0.00 0.00 36 1002.6
20260504194206 26 1 12.9 22.5 0.00 0.00 0.00 37 1002.6
20260504193702 26 345 9.7 20.9 0.00 0.00 0.00 35 1002.3
20260504193200 26 45 8.0 20.9 0.00 0.00 0.00 35 1002.3
20260504192658 26 91 4.8 24.1 0.00 0.00 0.00 35 1002.2
20260504192156 26 99 8.0 16.1 0.00 0.00 0.00 34 1002.3
20260504191654 26 198 11.3 27.4 0.00 0.00 0.00 34 1002.1
20260504191150 26 324 4.8 17.7 0.00 0.00 0.00 35 1002.2
20260504190646 26 73 8.0 16.1 0.00 0.00 0.00 34 1002.1
20260504190143 27 252 8.0 20.9 0.00 0.00 0.00 33 1002.3
20260504185639 27 275 4.8 12.9 0.00 0.00 0.00 33 1002.0
20260504185136 27 15 8.0 22.5 0.00 0.00 0.00 32 1001.8
20260504184632 27 198 1.6 14.5 0.00 0.00 0.00 32 1001.9
20260504184127 27 64 11.3 20.9 0.00 0.00 0.00 33 1001.9
20260504183624 27 10 6.4 12.9 0.00 0.00 0.00 32 1001.6
20260504183122 27 8 9.7 22.5 0.00 0.00 0.00 32 1002.0
20260504182619 26 321 11.3 14.5 0.00 0.00 0.00 33 1001.9
20260504182117 26 359 6.4 25.7 0.00 0.00 0.00 32 1002.0
20260504181614 26 13 6.4 20.9 0.00 0.00 0.00 33 1001.8
20260504181111 27 305 8.0 22.5 0.00 0.00 0.00 33 1002.0
20260504180610 27 318 4.8 11.3 0.00 0.00 0.00 32 1001.9
20260504180109 27 59 11.3 14.5 0.00 0.00 0.00 31 1001.9
20260504175606 27 291 6.4 14.5 0.00 0.00 0.00 32 1002.0
20260504175102 27 345 11.3 20.9 0.00 0.00 0.00 32 1002.0
20260504174600 27 72 1.6 6.4 0.00 0.00 0.00 32 1002.1
20260504174057 27 239 9.7 16.1 0.00 0.00 0.00 32 1002.2
20260504173553 26 166 1.6 11.3 0.00 0.00 0.00 34 1002.1
20260504173051 26 189 4.8 16.1 0.00 0.00 0.00 33 1002.2
20260504172547 26 1 4.8 14.5 0.00 0.00 0.00 34 1002.1
20260504172044 26 323 11.3 16.1 0.00 0.00 0.00 33 1002.3
20260504171541 26 252 8.0 24.1 0.00 0.00 0.00 33 1002.1
20260504171038 26 292 9.7 20.9 0.00 0.00 0.00 34 1002.3
20260504170533 25 194 4.8 9.7 0.00 0.00 0.00 37 1002.2
20260504150917 21 209 6.4 9.7 0.00 0.00 0.00 43 1002.3
20260504150414 21 201 3.2 6.4 0.00 0.00 0.00 43 1002.4